Location: Camp Crooked Creek
(37.9149°N, 85.6607°W)
Time: 09:31:58
(UTC-04:00)

Amateur Radio Satellites - All Passes

Search period start: 06 July 2015 09:01
Search period end: 07 July 2015 09:01
Location: Camp Crooked Creek, 37.9149°N, 85.6607°W

Satellite Date Start Highest point End Downlink Frequencies (MHz)
Time Altitude Azimuth
DANDE 06 Jul 09:05:44 09:13:04 88° 276° (W) 09:18:38 436.750
AUBIESAT-1 06 Jul 09:06:09 09:09:13 36° 68° (ENE) 09:12:26 437.475
ISS 06 Jul 09:12:09 09:15:04 30° 328° (NNW) 09:17:59 145.825
O/OREOS (USA 219) 06 Jul 09:20:08 09:23:18 18° 303° (WNW) 09:26:21 437.305
STRAND 1 06 Jul 09:22:17 09:25:14 15° 270° (W) 09:27:55 437.568
CUTE-I 06 Jul 09:25:39 09:29:30 20° 295° (WNW) 09:33:10 437.470
VERMONT LUNAR 06 Jul 09:28:24 09:31:28 53° 354° (N) 09:34:32 437.305
GOMX 1 06 Jul 09:31:25 09:35:17 36° 97° (E) 09:39:08 467.674
COMPASS 1 06 Jul 09:31:49 09:33:22 12° 89° (E) 09:35:10 437.405
CUSAT 1 06 Jul 09:32:35 09:38:25 36° 282° (WNW) 09:42:56 437.405
M-CUBED/EXP-1 PRIME 06 Jul 09:42:13 09:45:26 52° 255° (WSW) 09:48:47 437.505
CUTE 1.7 + AOD 2 06 Jul 09:46:24 09:50:08 29° 95° (E) 09:53:56 437.475
HO-68 06 Jul 09:47:16 09:53:52 40° 98° (E) 10:00:32 435.675
CANX-2 06 Jul 09:49:55 09:53:53 36° 97° (E) 09:57:51 2200.000
GONETS M04 06 Jul 10:03:42 10:12:29 82° 95° (E) 10:21:15
DOVE 4 06 Jul 10:05:52 10:09:56 55° 99° (E) 10:14:04 437.250
BRITE-PL 06 Jul 10:05:58 10:10:05 46° 286° (WNW) 10:14:02 437.365/2234.400
PHONESAT 2.4 06 Jul 10:13:13 10:16:39 83° 342° (NNW) 10:20:07 2401.200-2431.200
UWE-3 06 Jul 10:24:09 10:26:15 14° 91° (E) 10:28:35 435.000/436.395/437.385
SEEDS 06 Jul 10:31:09 10:35:27 81° 102° (ESE) 10:39:43 437.485
AIST 2 06 Jul 10:34:20 10:36:12 12° 318° (NW) 10:37:56 435.215
CINEMA 3 06 Jul 10:37:03 10:41:10 55° 100° (E) 10:45:23 145.822/145.860
AAUSAT CUBESAT 2 06 Jul 10:37:19 10:41:30 63° 100° (E) 10:45:41 437.432
DELFI C3 06 Jul 10:40:12 10:43:02 19° 93° (E) 10:46:00 145.870
ANTELSAT 06 Jul 10:44:58 10:48:23 24° 70° (ENE) 10:51:54 437.575/2403.000
Cosmos 2499 06 Jul 10:51:08 10:57:00 30° 87° (E) 11:03:05 435.465 / 435.565
POLYITAN 1 06 Jul 10:52:21 10:53:53 12° 66° (ENE) 10:55:39 437.675
DANDE 06 Jul 10:54:03 10:56:33 12° 291° (WNW) 10:58:26 436.750
TIGRISAT 06 Jul 10:56:04 10:59:48 31° 72° (ENE) 11:03:35 435.000
COMPASS 1 06 Jul 11:05:17 11:09:23 50° 286° (WNW) 11:13:29 437.405
VERMONT LUNAR 06 Jul 11:05:28 11:08:34 62° 10° (N) 11:11:41 437.305
ZACube-1 06 Jul 11:05:49 11:09:37 32° 97° (E) 11:13:32 437.345
HUMSAT D 06 Jul 11:09:32 11:11:41 14° 91° (E) 11:14:03 437.325/437.525
Oscar 11 06 Jul 11:09:54 11:14:14 64° 100° (E) 11:18:33 145.826/435.025
RS-15 06 Jul 11:10:15 11:21:19 47° 47° (NE) 11:32:57 29.354- 29.394
GOMX 1 06 Jul 11:10:34 11:13:12 16° 292° (WNW) 11:15:39 467.674
CUBEBUG 2 06 Jul 11:12:00 11:16:13 65° 101° (E) 11:20:32 437.445
QB50P2 06 Jul 11:19:39 11:23:05 25° 70° (ENE) 11:26:36 145.880/145.840
POPSAT HIP 1 06 Jul 11:19:53 11:23:16 24° 70° (ENE) 11:26:44 437.405
CUTE 1.7 + AOD 2 06 Jul 11:22:35 11:25:55 22° 290° (WNW) 11:29:08 437.475
CANX-2 06 Jul 11:26:35 11:29:33 18° 291° (WNW) 11:32:24 2200.000
HO-68 06 Jul 11:35:05 11:41:33 37° 294° (WNW) 11:47:55 435.675
UNISAT 6 06 Jul 11:36:03 11:40:21 84° 259° (W) 11:44:38 437.425
AISAT 06 Jul 11:37:22 11:39:20 13° 90° (E) 11:41:30 437.250
FUNcube-1 06 Jul 11:40:44 11:44:59 83° 99° (E) 11:49:20 145.935
DOVE 4 06 Jul 11:46:05 11:47:20 11° 294° (WNW) 11:48:19 437.250
PHONESAT 2.4 06 Jul 11:51:28 11:54:51 53° 2° (N) 11:58:14 2401.200-2431.200
QB50P1 06 Jul 11:57:45 12:01:58 68° 76° (ENE) 12:06:11 145.935-145.965
UWE-3 06 Jul 11:58:59 12:03:03 44° 286° (WNW) 12:07:10 435.000/436.395/437.385
GONETS M04 06 Jul 12:04:20 12:10:33 20° 296° (WNW) 12:16:18
50 SAT 06 Jul 12:07:11 12:10:42 32° 97° (E) 12:14:15 437.505
NANOSAT C BR1 06 Jul 12:11:06 12:15:21 85° 259° (WSW) 12:19:36 145.865
DELFI C3 06 Jul 12:14:35 12:18:11 30° 288° (WNW) 12:21:43 145.870
ESTCUBE 1 06 Jul 12:15:33 12:19:09 23° 94° (E) 12:22:48 437.505/2401.250
AAUSAT CUBESAT 2 06 Jul 12:15:36 12:16:38 11° 294° (WNW) 12:17:24 437.432
CINEMA 3 06 Jul 12:16:29 12:18:00 11° 293° (WNW) 12:19:18 145.822/145.860
DUCHIFAT 1 06 Jul 12:17:21 12:21:34 73° 258° (WSW) 12:25:47 145.980
ANTELSAT 06 Jul 12:21:33 12:25:07 25° 265° (W) 12:28:37 437.575/2403.000
VELOX 1 06 Jul 12:24:11 12:28:24 43° 99° (E) 12:32:36 145.980
BUGSAT 1 06 Jul 12:25:02 12:29:16 89° 84° (E) 12:33:30 437.445
POLYITAN 1 06 Jul 12:25:13 12:29:23 55° 260° (W) 12:33:32 437.675
DX 1 06 Jul 12:25:38 12:30:00 88° 95° (E) 12:34:20 434.975-435.025
TIGRISAT 06 Jul 12:33:29 12:36:38 19° 267° (W) 12:39:40 435.000
VERMONT LUNAR 06 Jul 12:42:28 12:45:24 37° 206° (SSW) 12:48:20 437.305
ZACube-1 06 Jul 12:42:41 12:45:49 20° 290° (WNW) 12:48:52 437.345
Cosmos 2499 06 Jul 12:43:22 12:49:58 41° 285° (WNW) 12:56:36 435.465 / 435.565
UKube-1 06 Jul 12:43:26 12:47:43 63° 285° (WNW) 12:51:59 .
HUMSAT D 06 Jul 12:43:43 12:47:40 42° 286° (WNW) 12:51:38 437.325/437.525
Oscar 11 06 Jul 12:48:36 12:49:56 11° 295° (WNW) 12:51:02 145.826/435.025
CUBEBUG 2 06 Jul 12:51:47 12:52:29 10° 294° (WNW) 12:52:56 437.445
QB50P2 06 Jul 12:55:23 12:58:55 25° 265° (W) 13:02:23 145.880/145.840
POPSAT HIP 1 06 Jul 12:55:30 12:59:04 25° 265° (W) 13:02:34 437.405
AISAT 06 Jul 13:11:59 13:16:16 49° 287° (WNW) 13:20:29 437.250
TISAT 1 06 Jul 13:15:41 13:18:05 15° 92° (E) 13:20:38 437.305
RS-15 06 Jul 13:22:46 13:34:08 55° 248° (WSW) 13:45:45 29.354- 29.394
CUBEBUG 1 06 Jul 13:23:04 13:27:25 71° 284° (WNW) 13:31:42 437.445
PHONESAT 2.4 06 Jul 13:29:32 13:33:00 82° 199° (SSW) 13:36:28 2401.200-2431.200
50 SAT 06 Jul 13:42:30 13:45:06 17° 291° (WNW) 13:47:35 437.505
YUBILEINY 06 Jul 13:45:14 13:50:18 17° 62° (ENE) 13:55:55 435.215
ESTCUBE 1 06 Jul 13:52:02 13:56:02 30° 290° (WNW) 13:59:55 437.505/2401.250
VELOX 1 06 Jul 14:01:52 14:04:38 16° 293° (WNW) 14:07:13 145.980
ISS 06 Jul 14:04:50 14:07:23 21° 27° (NNE) 14:09:57 145.825
Oscar 19 06 Jul 14:16:49 14:21:56 74° 76° (ENE) 14:27:04 437.125/150
SPROUT 06 Jul 14:16:53 14:21:07 61° 285° (WNW) 14:25:18 437.525
ITAMSAT 1 06 Jul 14:33:54 14:38:19 30° 69° (ENE) 14:42:51 435.822/435.867
BEESAT 06 Jul 14:39:33 14:43:14 22° 93° (E) 14:47:01 436.000
Gurwin Techsat 1B 06 Jul 14:40:05 14:44:49 35° 70° (ENE) 14:49:39 435.225
TISAT 1 06 Jul 14:50:09 14:54:03 38° 287° (WNW) 14:57:55 437.305
AO-7 06 Jul 14:50:58 14:55:31 17° 53° (NE) 15:00:30 29.400- 29.500
SWISSCUBE 06 Jul 14:54:59 14:59:22 35° 97° (E) 15:03:47 437.505
ITUPSAT 1 06 Jul 15:01:20 15:05:47 37° 97° (E) 15:10:14 437.325
PHONESAT 2.4 06 Jul 15:08:10 15:10:43 19° 212° (SSW) 15:13:14 2401.200-2431.200
PCSat 06 Jul 15:18:37 15:22:49 24° 108° (ESE) 15:27:12 145.827
BEESAT 3 06 Jul 15:28:56 15:30:44 13° 43° (NE) 15:32:39 437.485
JAS-2 06 Jul 15:32:09 15:36:23 27° 67° (ENE) 15:40:55 435.910
YUBILEINY 06 Jul 15:39:47 15:48:36 89° 74° (ENE) 15:57:26 435.215
ISS 06 Jul 15:40:49 15:43:55 44° 224° (SW) 15:47:00 145.825
BEESAT 2 06 Jul 15:43:58 15:46:11 14° 44° (NE) 15:48:30 435.950
AIST 1 06 Jul 15:55:31 15:59:26 33° 92° (E) 16:03:26
Cosmos 2491 06 Jul 15:58:59 16:07:40 67° 93° (E) 16:16:23 435.465 / 435.565
Oscar 19 06 Jul 16:00:12 16:01:57 11° 272° (W) 16:03:20 437.125/150
STARS 06 Jul 16:05:28 16:08:16 17° 92° (E) 16:11:12 437.465
SO-50 06 Jul 16:13:03 16:16:15 19° 110° (ESE) 16:19:41 436.795
ITAMSAT 1 06 Jul 16:13:08 16:17:46 31° 264° (W) 16:22:22 435.822/435.867
BEESAT 06 Jul 16:16:48 16:21:10 35° 289° (WNW) 16:25:28 436.000
Gurwin Techsat 1B 06 Jul 16:20:24 16:24:52 26° 266° (W) 16:29:16 435.225
JUGNU 06 Jul 16:31:43 16:32:47 10° 171° (S) 16:33:55 437.505
SWISSCUBE 06 Jul 16:33:16 16:37:02 23° 292° (WNW) 16:40:41 437.505
AO-7 06 Jul 16:38:50 16:47:09 78° 71° (ENE) 16:55:32 29.400- 29.500
ITUPSAT 1 06 Jul 16:39:45 16:43:28 22° 292° (WNW) 16:47:03 437.325
HORYU 2 06 Jul 16:51:54 16:56:19 80° 257° (WSW) 17:00:45 437.375
KKS-1 06 Jul 16:54:12 16:58:38 77° 285° (WNW) 17:03:04 437.445
PCSat 06 Jul 17:00:53 17:06:01 42° 304° (NW) 17:11:10 145.827
BEESAT 3 06 Jul 17:05:08 17:09:10 66° 242° (WSW) 17:13:06 437.485
AIST 2 06 Jul 17:16:28 17:20:12 30° 52° (NE) 17:23:53 435.215
JAS-2 06 Jul 17:16:51 17:21:29 32° 265° (W) 17:26:13 435.910
BEESAT 2 06 Jul 17:20:38 17:24:38 57° 243° (WSW) 17:28:34 435.950
MOZHAYETS 4 06 Jul 17:28:23 17:32:08 24° 94° (E) 17:35:58
AIST 1 06 Jul 17:34:04 17:37:14 18° 288° (WNW) 17:40:15
Cosmos 2504 06 Jul 17:35:16 17:42:44 58° 79° (E) 17:50:47 435.465 / 435.565
YUBILEINY 06 Jul 17:39:15 17:44:24 16° 280° (W) 17:48:59 435.215
STARS 06 Jul 17:40:50 17:44:53 38° 288° (WNW) 17:48:55 437.465
O/OREOS (USA 219) 06 Jul 17:50:50 17:55:19 58° 67° (ENE) 17:59:48 437.305
SO-50 06 Jul 17:51:54 17:56:27 47° 306° (NW) 18:01:10 436.795
Cosmos 2491 06 Jul 17:58:16 18:05:21 25° 293° (WNW) 18:12:08 435.465 / 435.565
Cubesat XI-IV 06 Jul 18:01:39 18:05:11 19° 65° (ENE) 18:08:54 437.490
JUGNU 06 Jul 18:18:18 18:20:58 13° 181° (S) 18:23:38 437.505
AO-7 06 Jul 18:34:49 18:40:52 21° 269° (W) 18:46:31 29.400- 29.500
AIST 2 06 Jul 18:55:17 18:58:37 23° 248° (WSW) 19:01:51 435.215
CUTE-I 06 Jul 19:04:33 19:09:53 71° 74° (ENE) 19:15:16 437.470
MOZHAYETS 4 06 Jul 19:05:17 19:09:22 30° 289° (WNW) 19:13:22
SRMSAT 06 Jul 19:15:09 19:17:33 13° 176° (S) 19:19:59 437.500
Cosmos 2504 06 Jul 19:28:27 19:34:34 26° 274° (W) 19:40:42 435.465 / 435.565
O/OREOS (USA 219) 06 Jul 19:32:34 19:34:17 12° 260° (W) 19:35:44 437.305
BRITE-PL 06 Jul 19:37:40 19:40:58 17° 68° (ENE) 19:44:21 437.365/2234.400
CUBESAT XI-V 06 Jul 19:38:07 19:42:39 48° 99° (E) 19:47:08 437.345
Cubesat XI-IV 06 Jul 19:39:38 19:44:53 55° 260° (W) 19:50:10 437.490
DANDE 06 Jul 19:50:30 19:53:02 37° 78° (ENE) 19:55:29 436.750
STRAND 1 06 Jul 19:53:34 19:57:32 23° 93° (E) 20:01:38 437.568
CUSAT 1 06 Jul 20:12:00 20:14:25 34° 263° (W) 20:16:55 437.405
HO-68 06 Jul 20:14:56 20:20:28 26° 62° (ENE) 20:26:11 435.675
GONETS M04 06 Jul 20:16:37 20:24:26 37° 72° (ENE) 20:32:21
PRISM 06 Jul 20:25:41 20:29:41 43° 99° (E) 20:33:40 437.425
GOMX 1 06 Jul 20:37:16 20:41:55 38° 73° (ENE) 20:46:22 467.674
CUTE 1.7 + AOD 2 06 Jul 20:38:29 20:41:13 18° 69° (ENE) 20:44:06 437.475
CANX-2 06 Jul 20:41:47 20:44:55 21° 70° (ENE) 20:48:11 2200.000
CUTE-I 06 Jul 20:48:00 20:50:35 13° 271° (W) 20:52:50 437.470
SRMSAT 06 Jul 21:03:43 21:05:53 12° 186° (S) 21:07:59 437.500
DOVE 4 06 Jul 21:09:20 21:14:00 49° 74° (ENE) 21:18:25 437.250
BRITE-PL 06 Jul 21:13:46 21:19:09 57° 260° (W) 21:24:13 437.365/2234.400
CUBESAT XI-V 06 Jul 21:16:46 21:19:43 16° 293° (WNW) 21:22:28 437.345
SEEDS 06 Jul 21:21:25 21:25:22 43° 73° (ENE) 21:29:22 437.485
M-CUBED/EXP-1 PRIME 06 Jul 21:25:18 21:27:11 13° 96° (E) 21:29:22 437.505
AAUSAT CUBESAT 2 06 Jul 21:26:29 21:30:10 32° 72° (ENE) 21:33:55 437.432
STRAND 1 06 Jul 21:32:08 21:36:53 38° 290° (WNW) 21:41:35 437.568
CINEMA 3 06 Jul 21:37:08 21:41:20 42° 74° (ENE) 21:45:25 145.822/145.860
COMPASS 1 06 Jul 21:54:17 21:58:26 86° 80° (E) 22:02:37 437.405
HO-68 06 Jul 22:00:44 22:07:47 59° 259° (WSW) 22:14:49 435.675
ZACube-1 06 Jul 22:00:54 22:03:59 21° 70° (ENE) 22:07:08 437.345
PRISM 06 Jul 22:02:22 22:04:47 15° 293° (WNW) 22:07:01 437.425
Oscar 11 06 Jul 22:03:00 22:06:58 39° 73° (ENE) 22:11:00 145.826/435.025
CUBEBUG 2 06 Jul 22:08:43 22:12:45 42° 74° (ENE) 22:16:44 437.445
CUTE 1.7 + AOD 2 06 Jul 22:13:01 22:16:54 35° 263° (W) 22:20:46 437.475
GONETS M04 06 Jul 22:13:18 22:21:26 45° 271° (W) 22:29:26
GOMX 1 06 Jul 22:16:09 22:20:09 22° 266° (W) 22:23:50 467.674
CANX-2 06 Jul 22:17:02 22:20:43 28° 265° (W) 22:24:22 2200.000
AUBIESAT-1 06 Jul 22:21:15 22:25:28 47° 104° (ESE) 22:29:55 437.475
Cosmos 2499 06 Jul 22:34:08 22:42:01 61° 79° (E) 22:50:28 435.465 / 435.565
FUNcube-1 06 Jul 22:34:50 22:38:52 49° 74° (ENE) 22:42:54 145.935
AISAT 06 Jul 22:35:03 22:35:57 11° 64° (ENE) 22:37:06 437.250
DOVE 4 06 Jul 22:49:07 22:52:00 15° 268° (W) 22:54:36 437.250
50 SAT 06 Jul 22:50:55 22:52:58 15° 68° (ENE) 22:55:11 437.505
UWE-3 06 Jul 22:54:11 22:58:24 69° 258° (WSW) 23:02:35 435.000/436.395/437.385
M-CUBED/EXP-1 PRIME 06 Jul 22:57:59 23:02:15 58° 290° (WNW) 23:06:47 437.505
SEEDS 06 Jul 22:59:13 23:01:26 14° 270° (W) 23:03:27 437.485
DELFI C3 06 Jul 22:59:20 23:03:18 63° 259° (W) 23:07:18 145.870
AAUSAT CUBESAT 2 06 Jul 23:03:00 23:05:53 18° 268° (W) 23:08:38 437.432
ESTCUBE 1 06 Jul 23:14:06 23:17:09 19° 68° (ENE) 23:20:22 437.505/2401.250
CINEMA 3 06 Jul 23:16:00 23:18:45 15° 268° (W) 23:21:15 145.822/145.860
DX 1 06 Jul 23:19:14 23:23:33 60° 75° (ENE) 23:27:53 434.975-435.025
VELOX 1 06 Jul 23:20:07 23:24:05 32° 71° (ENE) 23:28:04 145.980
UNISAT 6 06 Jul 23:30:03 23:33:29 23° 94° (E) 23:37:06 437.425
HUMSAT D 06 Jul 23:33:19 23:37:25 77° 258° (WSW) 23:41:31 437.325/437.525
UKube-1 06 Jul 23:36:07 23:40:28 86° 75° (ENE) 23:44:50 .
ZACube-1 06 Jul 23:36:32 23:40:13 28° 264° (W) 23:43:48 437.345
Oscar 11 06 Jul 23:40:37 23:43:22 16° 269° (W) 23:45:57 145.826/435.025
QB50P1 06 Jul 23:46:34 23:48:12 12° 90° (E) 23:50:04 145.935-145.965
CUBEBUG 2 06 Jul 23:47:22 23:49:42 14° 269° (W) 23:51:48 437.445
AUBIESAT-1 06 Jul 23:57:02 23:59:55 17° 296° (WNW) 00:02:44 437.475
NANOSAT C BR1 06 Jul 23:58:48 00:01:31 17° 92° (E) 00:04:23 145.865
DUCHIFAT 1 07 Jul 00:04:35 00:07:35 20° 93° (E) 00:10:43 145.980
AISAT 07 Jul 00:07:32 00:12:00 71° 259° (WSW) 00:16:29 437.250
PCSat 07 Jul 00:08:11 00:11:27 16° 45° (NE) 00:14:53 145.827
TISAT 1 07 Jul 00:08:39 00:08:52 10° 65° (ENE) 00:09:19 437.305
BUGSAT 1 07 Jul 00:10:39 00:12:41 14° 91° (E) 00:14:54 437.445
POLYITAN 1 07 Jul 00:12:41 00:16:12 26° 95° (E) 00:19:46 437.675
ANTELSAT 07 Jul 00:13:53 00:18:19 72° 101° (ESE) 00:22:49 437.575/2403.000
FUNcube-1 07 Jul 00:13:58 00:15:33 12° 270° (W) 00:16:52 145.935
CUBEBUG 1 07 Jul 00:17:02 00:21:27 76° 76° (ENE) 00:25:53 437.445
50 SAT 07 Jul 00:23:47 00:27:20 35° 262° (W) 00:30:51 437.505
TIGRISAT 07 Jul 00:25:03 00:29:28 89° 287° (WNW) 00:33:59 435.000
Cosmos 2499 07 Jul 00:28:19 00:34:45 26° 274° (W) 00:41:12 435.465 / 435.565
QB50P2 07 Jul 00:41:28 00:45:39 58° 100° (E) 00:49:48 145.880/145.840
POPSAT HIP 1 07 Jul 00:41:30 00:45:39 56° 100° (E) 00:49:47 437.405
SO-50 07 Jul 00:45:51 00:48:34 15° 41° (NE) 00:51:26 436.795
ESTCUBE 1 07 Jul 00:49:30 00:53:45 39° 262° (W) 00:58:02 437.505/2401.250
VELOX 1 07 Jul 00:57:14 01:00:42 21° 266° (W) 01:04:02 145.980
DX 1 07 Jul 00:59:02 01:00:16 11° 271° (W) 01:01:11 434.975-435.025
UNISAT 6 07 Jul 01:06:25 01:10:17 30° 289° (WNW) 01:14:11 437.425
SPROUT 07 Jul 01:08:54 01:13:12 80° 77° (ENE) 01:17:31 437.525
QB50P1 07 Jul 01:20:20 01:24:24 48° 286° (WNW) 01:28:27 145.935-145.965
NANOSAT C BR1 07 Jul 01:33:40 01:37:30 34° 288° (WNW) 01:41:17 145.865
RS-15 07 Jul 01:33:55 01:42:32 30° 106° (ESE) 01:51:42 29.354- 29.394
DUCHIFAT 1 07 Jul 01:39:46 01:43:27 30° 289° (WNW) 01:47:06 145.980
TISAT 1 07 Jul 01:39:55 01:44:08 67° 259° (WSW) 01:48:21 437.305
BUGSAT 1 07 Jul 01:44:36 01:48:23 38° 287° (WNW) 01:52:07 437.445
BEESAT 07 Jul 01:44:40 01:48:14 22° 68° (ENE) 01:51:56 436.000
POLYITAN 1 07 Jul 01:48:37 01:52:01 23° 290° (WNW) 01:55:19 437.675
PCSat 07 Jul 01:50:07 01:55:34 78° 244° (WSW) 02:00:58 145.827
ANTELSAT 07 Jul 01:53:43 01:54:37 10° 295° (WNW) 01:55:15 437.575/2403.000
SWISSCUBE 07 Jul 01:59:54 02:04:10 34° 70° (ENE) 02:08:30 437.505
ITUPSAT 1 07 Jul 02:06:29 02:10:48 35° 71° (ENE) 02:15:12 437.325
Cosmos 2491 07 Jul 02:12:14 02:19:31 30° 69° (ENE) 02:26:59 435.465 / 435.565
POPSAT HIP 1 07 Jul 02:19:31 02:21:06 12° 294° (WNW) 02:22:28 437.405
QB50P2 07 Jul 02:19:39 02:21:06 11° 294° (WNW) 02:22:18 145.880/145.840
SO-50 07 Jul 02:24:51 02:29:50 84° 242° (WSW) 02:34:41 436.795
Oscar 19 07 Jul 02:30:34 02:35:00 30° 95° (E) 02:39:30 437.125/150
YUBILEINY 07 Jul 02:45:11 02:50:45 20° 82° (E) 02:56:48 435.215
ITAMSAT 1 07 Jul 02:50:43 02:52:02 11° 88° (E) 02:53:44 435.822/435.867
Gurwin Techsat 1B 07 Jul 02:59:06 03:02:08 16° 90° (E) 03:05:25 435.225
STARS 07 Jul 03:01:49 03:03:47 13° 66° (ENE) 03:05:59 437.465
BEESAT 07 Jul 03:21:27 03:25:52 36° 263° (W) 03:30:17 436.000
SWISSCUBE 07 Jul 03:38:16 03:42:05 23° 266° (W) 03:45:50 437.505
AIST 1 07 Jul 03:41:27 03:45:49 88° 264° (W) 03:50:07
RS-15 07 Jul 03:43:14 03:54:06 69° 305° (NW) 04:05:19 29.354- 29.394
ITUPSAT 1 07 Jul 03:45:03 03:48:48 22° 266° (W) 03:52:28 437.325
KKS-1 07 Jul 03:50:20 03:54:46 77° 77° (ENE) 03:59:14 437.445
Cosmos 2491 07 Jul 04:08:24 04:16:54 56° 269° (W) 04:25:15 435.465 / 435.565
Oscar 19 07 Jul 04:09:52 04:14:20 30° 291° (WNW) 04:18:42 437.125/150
JAS-2 07 Jul 04:25:03 04:31:18 37° 96° (E) 04:38:13 435.910
ITAMSAT 1 07 Jul 04:27:01 04:32:14 77° 286° (WNW) 04:37:25 435.822/435.867
MOZHAYETS 4 07 Jul 04:29:13 04:32:24 20° 68° (ENE) 04:35:46
STARS 07 Jul 04:35:32 04:39:50 54° 260° (W) 04:44:09 437.465
Gurwin Techsat 1B 07 Jul 04:37:21 04:42:34 58° 287° (WNW) 04:47:46 435.225
YUBILEINY 07 Jul 04:38:04 04:46:46 76° 279° (W) 04:55:30 435.215
AO-7 07 Jul 04:43:19 04:50:07 28° 94° (E) 04:57:07 29.400- 29.500
HORYU 2 07 Jul 04:45:29 04:48:55 22° 94° (E) 04:52:27 437.375
RS-15 07 Jul 06:00:45 06:09:13 23° 334° (NNW) 06:17:39 29.354- 29.394
Cosmos 2504 07 Jul 06:04:38 06:11:02 42° 90° (E) 06:17:29 435.465 / 435.565
MOZHAYETS 4 07 Jul 06:05:08 06:09:24 38° 263° (W) 06:13:41
JAS-2 07 Jul 06:10:02 06:16:22 41° 290° (WNW) 06:23:13 435.910
HORYU 2 07 Jul 06:21:38 06:25:36 31° 289° (WNW) 06:29:31 437.375
AO-7 07 Jul 06:35:13 06:43:26 60° 292° (WNW) 06:51:33 29.400- 29.500
CUBESAT XI-V 07 Jul 06:39:40 06:44:00 39° 72° (ENE) 06:48:24 437.345
YUBILEINY 07 Jul 06:41:13 06:45:28 13° 301° (WNW) 06:49:03 435.215
ISS 07 Jul 06:43:59 06:45:21 12° 129° (SE) 06:46:50 145.825
VERMONT LUNAR 07 Jul 06:52:00 06:54:48 31° 153° (SSE) 06:57:37 437.305
BEESAT 3 07 Jul 06:56:06 06:59:43 32° 115° (ESE) 07:03:26 437.485
STRAND 1 07 Jul 07:07:42 07:12:01 29° 69° (ENE) 07:16:26 437.568
BEESAT 2 07 Jul 07:12:20 07:16:07 38° 115° (ESE) 07:20:00 435.950
PRISM 07 Jul 07:14:17 07:17:43 26° 70° (ENE) 07:21:14 437.425
DANDE 07 Jul 07:18:30 07:20:25 12° 91° (E) 07:22:40 436.750
CUTE-I 07 Jul 07:23:53 07:28:37 32° 96° (E) 07:33:23 437.470
CUSAT 1 07 Jul 07:33:56 07:38:22 21° 95° (E) 07:42:15 437.405
PHONESAT 2.4 07 Jul 07:52:33 07:55:03 19° 148° (SSE) 07:57:36 2401.200-2431.200
Cosmos 2504 07 Jul 07:57:28 08:03:24 29° 288° (WNW) 08:09:13 435.465 / 435.565
Cubesat XI-IV 07 Jul 07:58:35 08:03:57 70° 101° (ESE) 08:09:17 437.490
O/OREOS (USA 219) 07 Jul 08:01:10 08:05:38 83° 291° (WNW) 08:10:07 437.305
CUBESAT XI-V 07 Jul 08:18:09 08:21:36 19° 268° (W) 08:24:56 437.345
ISS 07 Jul 08:18:14 08:21:25 57° 322° (NW) 08:24:38 145.825
RS-15 07 Jul 08:20:51 08:27:33 17° 9° (N) 08:34:35 29.354- 29.394
VERMONT LUNAR 07 Jul 08:28:29 08:31:35 67° 349° (N) 08:34:41 437.305
AO-7 07 Jul 08:31:24 08:34:43 12° 311° (NW) 08:37:32 29.400- 29.500
BEESAT 3 07 Jul 08:34:31 08:37:45 22° 311° (NW) 08:40:57 437.485
STRAND 1 07 Jul 08:46:34 08:51:09 31° 264° (W) 08:55:42 437.568
PRISM 07 Jul 08:49:44 08:53:08 23° 265° (W) 08:56:28 437.425
AIST 2 07 Jul 08:50:20 08:54:35 74° 302° (WNW) 08:58:51 435.215
BEESAT 2 07 Jul 08:51:17 08:54:21 19° 312° (NW) 08:57:21 435.950
